sat.trackr.live / text

‹ back to catalog

STARLINK-30591

NORAD 58088 · 2023-160P

PAYLOAD ACTIVE UNKNOWN

§ Identity

Operator
Country
US
Launch date
2023-10-18
Launch site
AFETR
Launch vehicle
Mass (kg)
RCS (m²)

Purposes: comms

External: N2YO · Heavens-Above · Gunter

§ Orbital elements

Epoch: 2026-09-20T16:48:10.693728Z

Period
94.27 min
Inclination
43.0033°
Eccentricity
0.0001705
Mean motion
15.27575748 rev/d
Perigee alt
481.9 km
Apogee alt
484.2 km
Semi-major
6,861.2 km
B*
1.1853e-5
RAAN
56.2662°
Arg perigee
272.1311°
Mean anomaly
87.9346°
Rev number
16,277

§ Raw data

STARLINK-305911 58088U 23160P   26263.70012377  .00000064  00000+0  11853-4 0  99982 58088  43.0033  56.2662 0001705 272.1311  87.9346 15.27575748162772

JSON: /api/v1/satellites/58088 · /tle

For live sub-satellite position, see the globe view (requires WebGL).

§ Visibility from observer

Set your observer location to see the next 7 days of passes ≥ 10°. The values pass through the URL so the page stays shareable.

No JS? Fill the form by hand. The geolocation button needs JavaScript.